Showing default

STARONE D2, 49055

Orbit data source: Space-Track

STARONE D2, 49055 is a payload satellite owned by Star One (BR) in GEO that was launched on Fri, 30 Jul 2021 UTC via an ARIANE 5ECA+ launch vehicle from the French Guiana (FRGUI). Payload-class satellites include a variety of spacecraft equipped with specific instruments for various scientific and technological missions. These include communications satellites like Starlink; space stations such as the ISS; scientific satellites like the Hubble; Earth observation satellites from companies like Planet Labs, Umbra, and HawkEye 360; GPS; miniature CubeSats for education and research; and military/defense satellites.

Loading next visibility...
Identifier
49055, 2021-069A
Orbit
GEO
Country
Flag of BRBR / BRAZ
Related business
Manufacturer
Maxar Space Sol
Mission
Operational Commercial Communications
Bus & Motor
LS-1300, R-4D
Mass
6,190 kg wet, ~3,500 kg dry
Launch date (UTC)
2021-07-30 (5 years ago)
Launch vehicle
ARIANE 5ECA+
Launch site
French Guiana (FRGUI)
Object type
Payload
Rocket body
Debris
Shape & HBR
Box + 2 Pan, 13.5 m
Radar Cross Section
28.284 m², Large (>1 m²)

Expand to show TLE details & history
Last TLE update: 4 days ago

TLE from 4 days ago
0 STARONE D2
1 49055U 21069A   26169.80975734  .00000000  00000-0  00000-0 0  9998
2 49055   0.0153 340.0202 0002033 132.6885  15.7458  1.00270132 17965
Epoch: 2026-06-18T19:26Z
TLE epoch observation values (Epoch: 2026-06-18T19:26:03.034Z)
Latitude
0.02307°
Longitude
-70.08718°
Altitude
35,778.278 km
Speed
3.075 km/s
True Right ascension
08h 33m 53s
True Declination
0° 01' 23"
Sunlit
Object was in daylight at epoch
Visualization orbit readout
Latitude
Unknown
Longitude
Unknown
Altitude
Unknown
Speed
Unknown
Apparent Right ascension
Unknown
Apparent Declination
Unknown
Sunlit
N/A
Visualization observer readout
Local Sidereal Time
21:29:50
Azimuth
Unknown
Elevation
Unknown
Doppler factor
Unknown
Orbital elements
Apogee altitude
35,796.701 km
Perigee altitude
35,779.556 km
Semi-major axis
42,166.266 km
Eccentricity
0.0002
Inclination
0.0153°
RAAN
340.0202°
Arg. of periapsis
132.6885°
True anomaly
15.75212°
Mean anomaly
15.7458°
Eccentric anomaly
15.74896°
Mean motion
0.25067 °/min
Orbital period
1,436.17 mins
BSTAR
0
Loading maneuver chart data...
Computing Atmospheric mass density...
Loading historical data...
Loading historical data...
Loading historical data...
Loading historical data...
Loading historical data...
Loading historical data...
Loading historical data...
Other satellites on launch #69 in the year 2021 (2021-07-30 UTC)

Documentation

Showing up to 5 results
|